Location: Goettingen
(51.5300°N, 9.9433°E)
Time: 21:03:22
(UTC+01:00)

ISS - Pass Details

Date: 20 January 2022
Orbit: 413 x 422 km, 51.6° (Epoch: 28 January)

Event Time Altitude Azimuth Distance (km) Brightness Sun altitude
Rises 18:13:06 0° 207° (SSW) 2,336 0.7 -12.8°
Reaches altitude 10° 18:15:37 10° 188° (S) 1,479 -0.7 -13.2°
Maximum altitude 18:17:57 18° 143° (SE) 1,094 -1.9 -13.5°
Enters shadow 18:18:51 16° 122° (ESE) 1,161 -1.9 -13.7°
